Weather History for Du Bois, PA

Change the Weather History Date:

Wednesday, November 28, 2012

  Actual Average Record
Temperature  
Mean Temperature 31 °F 34 °F  
Max Temperature 36 °F 41 °F 71 °F (2005)
Min Temperature 25 °F 27 °F 10 °F (1996)
Degree Days  
Heating Degree Days 34 31  
Month to date heating degree days 784 713  
Since 1 July heating degree days 1436 1456  
Cooling Degree Days 0 0  
Month to date cooling degree days 0 0  
Year to date cooling degree days 548 362  
Moisture  
Dew Point 19 °F    
Average Humidity 61    
Maximum Humidity 75    
Minimum Humidity 47    
Precipitation  
Precipitation 0.00 in 0.12 in 1.77 in (1966)
Month to date precipitation 0.54 3.43  
Sea Level Pressure  
Sea Level Pressure 30.26 in    
Wind  
Wind Speed 10 mph (WSW)    
Max Wind Speed 21 mph    
Max Gust Speed 28 mph    
Visibility 10 miles    
Events      
T = Trace of Precipitation, MM = Missing Value Source: NWS Daily Summary

Daily Weather History Graph

Daily Weather History Graph

Search for Another Location

Airport:

Trip Planner

Search our weather history database for the weather conditions in past years. The results will help you decide how hot, cold, wet, or windy it might be!

Date:

Astronomy

Nov. 28, 2012 Rise Set
Actual Time 7:18 AM EST 4:48 PM EST
Civil Twilight 6:48 AM EST 5:18 PM EST
Nautical Twilight 6:14 AM EST 5:52 PM EST
Astronomical Twilight 5:41 AM EST 6:26 PM EST
Moon 5:01 PM EST (11/28) 7:14 AM EST (11/28)
Length of Visible Light 10h 30m
Length of Day
9h 29m
Full, 100% of the Moon is Illuminated
Nov 28
Full
Dec 6
Last Quarter
Dec 13
New
Dec 20
First Quarter
Dec 28
Full

Hourly Weather History & Observations

Time (EST) Temp. Windchill Dew Point Humidity Pressure Visibility Wind Dir Wind Speed Gust Speed Precip Events Conditions
12:56 AM 26.1 °F - 19.9 °F 78% 30.26 in 10.0 mi Calm Calm - N/A   Overcast
1:56 AM 27.0 °F 21.6 °F 19.9 °F 75% 30.26 in 10.0 mi West 4.6 mph - N/A   Overcast
2:41 AM 26.6 °F 21.2 °F 19.4 °F 74% 30.20 in 10.0 mi WSW 4.6 mph - N/A   Overcast
2:56 AM 27.0 °F 18.7 °F 19.0 °F 72% 30.26 in 10.0 mi WSW 8.1 mph - N/A   Overcast
3:56 AM 26.1 °F 19.4 °F 19.0 °F 75% 30.25 in 10.0 mi West 5.8 mph - N/A   Mostly Cloudy
4:56 AM 27.0 °F 20.5 °F 19.9 °F 75% 30.25 in 10.0 mi West 5.8 mph - N/A   Overcast
5:56 AM 27.0 °F 20.5 °F 19.0 °F 72% 30.25 in 10.0 mi SW 5.8 mph - N/A   Overcast
6:15 AM 26.6 °F 22.6 °F 19.4 °F 74% 30.18 in 10.0 mi SSW 3.5 mph - N/A   Overcast
6:56 AM 27.0 °F 20.5 °F 19.0 °F 72% 30.25 in 10.0 mi SW 5.8 mph - N/A   Overcast
7:56 AM 27.0 °F 19.5 °F 19.9 °F 75% 30.26 in 10.0 mi WSW 6.9 mph - N/A   Overcast
8:25 AM 28.4 °F 18.5 °F 19.4 °F 69% 30.20 in 10.0 mi WSW 11.5 mph - N/A   Overcast
8:56 AM 28.0 °F 15.7 °F 19.0 °F 69% 30.27 in 10.0 mi West 17.3 mph - N/A   Overcast
9:56 AM 28.9 °F 19.2 °F 19.0 °F 67% 30.28 in 10.0 mi West 11.5 mph 20.7 mph N/A   Mostly Cloudy
10:19 AM 28.4 °F 18.5 °F 19.4 °F 69% 30.22 in 10.0 mi WSW 11.5 mph 23.0 mph N/A   Mostly Cloudy
10:49 AM 30.2 °F 19.3 °F 19.4 °F 64% 30.21 in 10.0 mi West 15.0 mph 25.3 mph N/A   Overcast
10:56 AM 30.9 °F 20.7 °F 19.0 °F 61% 30.28 in 10.0 mi West 13.8 mph 25.3 mph N/A   Overcast
11:56 AM 33.1 °F 22.2 °F 19.0 °F 56% 30.26 in 10.0 mi West 17.3 mph 24.2 mph N/A   Partly Cloudy
12:56 PM 33.1 °F 22.6 °F 18.0 °F 54% 30.25 in 10.0 mi West 16.1 mph 23.0 mph N/A   Partly Cloudy
1:56 PM 35.1 °F 25.5 °F 17.1 °F 48% 30.23 in 10.0 mi WSW 15.0 mph 26.5 mph N/A   Partly Cloudy
2:56 PM 34.0 °F 24.6 °F 17.1 °F 50% 30.23 in 10.0 mi West 13.8 mph 23.0 mph N/A   Mostly Cloudy
3:56 PM 33.1 °F 25.5 °F 18.0 °F 54% 30.25 in 10.0 mi West 9.2 mph - N/A   Overcast
4:56 PM 32.0 °F 23.6 °F 18.0 °F 56% 30.26 in 10.0 mi West 10.4 mph - N/A   Overcast
5:56 PM 30.9 °F 22.2 °F 18.0 °F 59% 30.29 in 10.0 mi West 10.4 mph 18.4 mph N/A   Mostly Cloudy
6:56 PM 30.0 °F 23.2 °F 18.0 °F 61% 30.30 in 10.0 mi West 6.9 mph - N/A   Overcast
7:56 PM 30.0 °F 22.4 °F 19.9 °F 66% 30.32 in 10.0 mi West 8.1 mph - N/A   Overcast
8:56 PM 28.9 °F 18.6 °F 19.0 °F 67% 30.32 in 10.0 mi WSW 12.7 mph - N/A   Clear
9:56 PM 28.0 °F 17.5 °F 19.9 °F 72% 30.31 in 10.0 mi WSW 12.7 mph - N/A   Clear
10:56 PM 27.0 °F 16.7 °F 19.0 °F 72% 30.31 in 10.0 mi West 11.5 mph - N/A   Clear
11:56 PM 27.0 °F 18.0 °F 19.0 °F 72% 30.32 in 10.0 mi WSW 9.2 mph - N/A   Mostly Cloudy